Location: B�rgermoos
(47.6500°N, 9.0667°E)
Time: 00:08:44
(UTC+00:00)

Tiros 1 - Pass Details

Date: 06 August 2021
Orbit: 630 x 663 km, 48.4° (Epoch: 19 September)

Event Time Altitude Azimuth Distance (km) Brightness Sun altitude
Rises 18:30:52 0° 275° (W) 2,987 12.3 2.2°
Reaches altitude 10° 18:33:13 10° 276° (W) 2,071 11.5 1.9°
Maximum altitude 18:38:01 82° 4° (N) 665 7.4 1.1°
Drops below altitude 10° 18:42:46 10° 93° (E) 2,049 9.2 0.4°
Sets 18:45:05 0° 94° (E) 2,953 9.9 0.0°
